Погода в Мачу-Пикчу

Перу     13°09′44″S   72°32′41″W
темп.,
°C
ветер,
м/с
пор.,
м/с
влажн.,
%
обл.,
%
осадки,
мм/ч
давл.,
гПа
погр.,
м
19 апреля, пн
пн1901:00+6ссз229759 0.2 1021135
04:00+5ссз1194100 0.2 102087
07:00+6юв008859 0.2 1022122
10:00+12ссз116246 0.0 10191145
13:00+13ссз326220 0.8 10161144
16:00+11ссз327946 1.3 1015628
19:00+7ссз229777 1.8 1019180
22:00+6ссз129794 0.1 102293
20 апреля, вт
вт2001:00+6с019466 0.1 1020122
04:00+4юв019364 0.0 102064
07:00+6ююв008566 0.0 1022175
10:00+11ссз326642 0.4 10191115
13:00+12ссз326775 2.4 10171057
16:00+10ссз327724 1.4 1015757
19:00+6ссз129970 1.8 102075
22:00+6св1294100 0.6 102269
21 апреля, ср
ср2101:00+5ю2289100 1.4 102024
04:00+5ююв3392100 0.6 1020143
07:00+6ююв348754 0.8 1021148
10:00+12ссз115735 0.1 10181317
13:00+12ссз336438 2.3 10151118
16:00+8з2289100 4.0 1016317
19:00+5вюв119141 4.9 102021
22:00+5всв019287 0.4 102122
22 апреля, чт
чт2201:00+5ююз1192100 1.1 102017
04:00+5ююз2291100 0.2 101947
07:00+6ю2291100 0.4 1021132
10:00+11ссз115933 0.2 10191238
13:00+11ссз326564 1.4 10151223
16:00+10ссз337176 1.1 1014805
19:00+6ссз1298100 1.9 101982
22:00+6ссз129794 0.2 1021170
23 апреля, пт
пт2301:00+5ссв0196100 0.3 1020135
04:00+4ююв219467 0.1 1020204
07:00+6юв0188100 0.3 1021113
10:00+9ссз327574 0.4 1020952
13:00+10ссз327474 1.6 10161002
16:00+9ссз337969 0.4 1015657
19:00+5ссз029845 0.5 101972
22:00+5сз119249 0.0 102144